Home > Weather > Helmstedt > Past weeks

Flag for Germany Past Weather in Helmstedt, Lower Saxony, Germany — Yesterday and Last 2 Weeks

Now
61 °F

Passing clouds.


Feels Like: 61 °F
Forecast: 67 / 87 °F
Wind: 5 mph from East

Location: Braunschweig Wolfsburg

Current Time: Aug 26, 2016 at 7:23:52 AM

Latest Report: Aug 26, 2016 at 6:50 AM


Visibility: N/A

Pressure: 30.01 "Hg

Humidity: 83%

Dew Point: 55 °F

Location of HelmstedtLocation

Past Weather in Helmstedt — Graph

°F

Helmstedt Temperature Yesterday

Maximum temperature yesterday: 91 °F (at 2:50 PM)
Minimum temperature yesterday: 61 °F (at 6:50 AM)
Average temperature yesterday: 82 °F

High & Low Weather Summary for the Past Weeks

 TemperatureHumidityPressure
High91 °F (Aug 25, 2:50 PM)100% (Aug 12, 7:50 AM)30.33 "Hg (Aug 12, 7:50 AM)
Low46 °F (Aug 11, 6:50 AM)21% (Aug 25, 4:50 PM)29.80 "Hg (Aug 18, 3:50 PM)
Average68 °F63%30.10 "Hg
* Reported Aug 10 7:20 PM — Aug 25 7:50 PM, Helmstedt, Weather by CustomWeather, © 2016

Note: Actual official high and low records may vary slightly from our data, if they occured in-between our weather recording intervals... More about our weather records

Advertising

Helmstedt Weather History for the Previous 24 Hours

Scroll right to see more
 ConditionsComfort  
Time TempWeatherWind HumidityBarometerVisibility
7:50 PM
Thu, Aug 25
86 °FSunny.12 mph29%30.01 "Hg10 mi
7:20 PM86 °FSunny.12 mph29%30.01 "Hg10 mi
6:50 PM90 °FSunny.12 mph24%30.01 "Hg10 mi
6:20 PM90 °FSunny.13 mph22%30.04 "Hg10 mi
5:50 PM91 °FSunny.14 mph21%30.04 "Hg10 mi
5:20 PM91 °FSunny.14 mph21%30.04 "Hg10 mi
4:50 PM91 °FSunny.13 mph21%30.04 "Hg10 mi
4:20 PM91 °FSunny.13 mph24%30.07 "Hg10 mi
3:50 PM91 °FSunny.13 mph24%30.07 "Hg10 mi
3:20 PM91 °FSunny.12 mph24%30.07 "Hg10 mi
2:50 PM91 °FSunny.10 mph24%30.07 "Hg10 mi
2:20 PM90 °FSunny.10 mph29%30.09 "Hg10 mi
1:50 PM88 °FPassing clouds.9 mph29%30.09 "HgN/A
1:20 PM88 °FPassing clouds.10 mph31%30.09 "HgN/A
12:50 PM86 °FPassing clouds.7 mph33%30.09 "HgN/A
12:20 PM86 °FSunny.6 mph38%30.12 "Hg10 mi
11:50 AM82 °FPassing clouds.6 mph48%30.12 "HgN/A
11:20 AM81 °FSunny.1 mph51%30.15 "Hg10 mi
10:50 AM79 °FSunny.2 mph54%30.15 "Hg10 mi
10:20 AM75 °FSunny.3 mph61%30.15 "Hg10 mi
9:50 AM75 °FPassing clouds.6 mph61%30.12 "HgN/A
9:20 AM70 °FSunny.6 mph69%30.15 "Hg10 mi
8:50 AM68 °FPassing clouds.5 mph73%30.15 "HgN/A
8:20 AM66 °FSunny.5 mph78%30.15 "Hg10 mi
7:50 AM64 °FSunny.5 mph88%30.15 "Hg10 mi
7:20 AM61 °FSunny.No wind88%30.15 "Hg10 mi
Weather by CustomWeather, © 2016

See weather overviewHow to use our weather pages